Regional Weather Roundup
Issued by NWS Little Rock, AR

Home | Current Version | Previous Version | Graphics & Text | Print | Product List | Glossary On
Versions: 1 2 3 4 5 6 7 8 9 10 11 12 13 14 15 16 17 18 19 20 21 22 23 24 25 26 27 28 29 30 31 32 33 34 35 36 37 38 39 40 41 42 43 44 45 46 47 48 49 50
000
ASUS44 KLZK 172105
RWRLZK

WEATHER ROUNDUP FOR ARKANSAS
NATIONAL WEATHER SERVICE LITTLE ROCK AR
400 PM CDT WED SEP 17 2014

NOTE: "FAIR" INDICATES FEW OR NO CLOUDS BELOW 12,000 FEET WITH NO
SIGNIFICANT WEATHER AND/OR OBSTRUCTIONS TO VISIBILITY.

ARZ001-003-010-029-172200-
NORTHWEST ARKANSAS

CITY           SKY/WX    TMP DP  RH WIND       PRES   REMARKS
FAYETTEVILLE   PTSUNNY   81  71  71 S10       29.92F HX  85
FORT SMITH     SUNNY     86  72  62 NE5       29.89F HX  92
HARRISON       CLOUDY    63  63 100 S7        29.97F
BENTONVILLE    CLOUDY    79  63  57 SE13G26   29.93R
ROGERS         CLOUDY    70  63  78 E13       29.94R
SILOAM SPGS    MOSUNNY   86  70  58 S10G18    29.91F HX  90
HIGHFILL       PTSUNNY   85  71  63 S10       29.91F HX  90
SPRINGDALE     PTSUNNY   84  72  65 S13       29.94F HX  89
$$

ARZ004-005-016-172200-
NORTH CENTRAL ARKANSAS

CITY           SKY/WX    TMP DP  RH WIND       PRES   REMARKS
BATESVILLE     CLOUDY    66  59  77 S8        29.97F
FLIPPIN        CLOUDY    64  59  82 S9        29.92F THUNDER
MTN HOME       RAIN      64  63  96 S10G21    29.90F FOG
$$

ARZ040-041-172200-
WEST CENTRAL ARKANSAS

CITY           SKY/WX    TMP DP  RH WIND       PRES   REMARKS
MENA           MOSUNNY   88  72  58 CALM      29.93F HX  94
MOUNT IDA      PTSUNNY   85  71  63 CALM      29.91F HX  90
$$

ARZ009-017-025-026-028-172200-
NORTHEAST ARKANSAS

CITY           SKY/WX    TMP DP  RH WIND       PRES   REMARKS
CORNING          N/A     63  63 100 W3G20     29.93R
JONESBORO      LGT RAIN  66  60  81 W12       30.01R
NEWPORT        TSTM      65  61  87 NE6       30.00F
WALNUT RIDGE   CLOUDY    61  57  88 S22       29.89F
BLYTHEVILLE    CLOUDY    67  61  81 SW8       29.96F
NW BLYTHEVILLE CLOUDY    66  61  82 SW9       29.95
$$

ARZ022-023-033-042-044-172200-
CENTRAL ARKANSAS

CITY           SKY/WX    TMP DP  RH WIND       PRES   REMARKS
LITTLE ROCK    PTSUNNY   85  68  56 SE6       29.94F HX  88
N LITTLE ROCK  PTSUNNY   82  71  68 E6        29.94F HX  86
JACKSONVILLE   MOSUNNY   84  69  61 E8        29.95F HX  87
SEARCY         CLOUDY    76  67  73 E9        29.99S
HOT SPRINGS    PTSUNNY   84  69  60 E8        29.93F HX  88
RUSSELLVILLE   MOSUNNY   82  71  69 E6        29.93F HX  86
CLINTON        CLOUDY    73  70  88 NE3       29.98S
$$

ARZ036-172200-
EAST ARKANSAS

CITY           SKY/WX    TMP DP  RH WIND       PRES   REMARKS
WEST MEMPHIS   CLOUDY    73  62  68 CALM      29.95F
$$

ARZ050-053-066-070-073-172200-
SOUTHWEST ARKANSAS

CITY           SKY/WX    TMP DP  RH WIND       PRES   REMARKS
ARKADELPHIA    FAIR      85  73  67 E3        29.92F HX  91
CAMDEN         PTSUNNY   93  66  40 N3        29.91F HX  96
TEXARKANA      PTSUNNY   87  71  58 CALM      29.90F HX  93
EL DORADO      MOSUNNY   88  68  51 CALM      29.91F HX  91
DE QUEEN       MOSUNNY   86  74  67 CALM      29.89F HX  94
$$

ARZ056-057-069-172200-
SOUTHEAST ARKANSAS

CITY           SKY/WX    TMP DP  RH WIND       PRES   REMARKS
PINE BLUFF     SUNNY     86  68  54 CALM      29.93F HX  89
STUTTGART      SUNNY     84  70  61 NW3       29.95F HX  88
MONTICELLO     PTSUNNY   87  68  52 NE3       29.92F HX  90

$$





USA.gov is the U.S. government's official web portal to all federal, state and local government web resources and services.